Location: Goudex
(43.3760°N, 0.9543°E)
Time: 16:59:56
(UTC+00:00)

Meteor 1-26 Rocket - Pass Details

Date: 20 November 2019
Orbit: 816 x 919 km, 81.3° (Epoch: 05 December)

Event Time Altitude Azimuth Distance (km) Brightness Sun altitude
Rises 05:25:00 0° 351° (N) 3,469 7.2 -16.3°
Reaches altitude 10° 05:27:29 10° 353° (N) 2,511 6.5 -15.8°
Maximum altitude 05:33:10 74° 79° (E) 882 4.4 -14.8°
Drops below altitude 10° 05:38:40 10° 164° (SSE) 2,431 7.0 -13.9°
Sets 05:41:02 0° 166° (SSE) 3,350 7.7 -13.5°
